Back to catalog

DELTA 1 R/B(2)

AliveHEO
NORAD 17563·ROCKET BODY·🇺🇸 United States

Launched Feb 26, 1987 from Cape Canaveral Space Force Station

Loading…

Next Passes (next 24 hours)

TLE

FreshSource: Space-Track

Epoch: Sep 14, 2026, 07:27 UTC

1 17563U 87022C   26257.31064346  .00002878  00000-0  11439-2 0  9995
2 17563  17.9539 330.1486 5990700  16.7137 356.6365  4.01854029403260

Track DELTA 1 R/B(2) in real time with AllMySat

Download on the App Store